﻿_id,日時,平均風速(m/s),平均風向,最大瞬間風速(m/s),最大風速時風向,気温(℃),湿度(%),10分間移動積算雨量(mm),1時間移動積算雨量(mm),日雨量(mm),累計雨量(mm),日射(日積算)(MJ/m2),日照(日積算)(min),現地気圧(hPa),海面気圧(hPa)
1,2021-10-25T00:00:00,0.4,北西,0.8,西南西,10.5,87.2,0,0,0,0,13.76,397,1011.7,1025.9
2,2021-10-25T00:01:00,0.4,北西,0.9,西北西,10.6,87.5,0,0,0,0,0,0,1011.6,1025.8
3,2021-10-25T00:02:00,0.4,北西,0.9,西北西,10.6,87.6,0,0,0,0,0,0,1011.6,1025.8
4,2021-10-25T00:03:00,0.4,北西,1.1,西,10.5,87.3,0,0,0,0,0,0,1011.6,1025.8
5,2021-10-25T00:04:00,0.5,北西,1.1,西,10.5,87.6,0,0,0,0,0,0,1011.6,1025.8
6,2021-10-25T00:05:00,0.5,北西,1.1,西,10.5,87.6,0,0,0,0,0,0,1011.6,1025.8
7,2021-10-25T00:06:00,0.5,西北西,1.1,西,10.5,87.7,0,0,0,0,0,0,1011.6,1025.8
8,2021-10-25T00:07:00,0.6,西北西,1.1,西,10.6,88,0,0,0,0,0,0,1011.6,1025.8
9,2021-10-25T00:08:00,0.7,西北西,1.1,西,10.6,87.9,0,0,0,0,0,0,1011.5,1025.7
10,2021-10-25T00:09:00,0.7,西北西,1.2,西,10.5,87.6,0,0,0,0,0,0,1011.5,1025.7
11,2021-10-25T00:10:00,0.8,西北西,1.2,西,10.4,87.4,0,0,0,0,0,0,1011.6,1025.8
12,2021-10-25T00:11:00,0.8,西北西,1.2,西,10.4,87.3,0,0,0,0,0,0,1011.6,1025.8
13,2021-10-25T00:12:00,0.9,西,1.2,西,10.4,87.2,0,0,0,0,0,0,1011.6,1025.8
14,2021-10-25T00:13:00,0.9,西北西,1.2,西,10.4,87.4,0,0,0,0,0,0,1011.5,1025.7
15,2021-10-25T00:14:00,0.9,西北西,1.2,西,10.4,87.5,0,0,0,0,0,0,1011.5,1025.7
16,2021-10-25T00:15:00,0.9,西北西,1.2,西,10.3,87.5,0,0,0,0,0,0,1011.5,1025.7
17,2021-10-25T00:16:00,0.9,西,1.2,西,10.2,87.6,0,0,0,0,0,0,1011.5,1025.7
18,2021-10-25T00:17:00,0.9,西,1.2,西,10.1,87.5,0,0,0,0,0,0,1011.5,1025.7
19,2021-10-25T00:18:00,0.9,西,1.2,西,10.1,87.6,0,0,0,0,0,0,1011.6,1025.8
20,2021-10-25T00:19:00,0.9,西,1.2,西,10.2,88.3,0,0,0,0,0,0,1011.6,1025.8
21,2021-10-25T00:20:00,0.8,西,1.2,西,10.1,88.6,0,0,0,0,0,0,1011.6,1025.8
22,2021-10-25T00:21:00,0.8,西,1.2,西,10,88.5,0,0,0,0,0,0,1011.5,1025.7
23,2021-10-25T00:22:00,0.7,西,1.2,西,10.2,89,0,0,0,0,0,0,1011.5,1025.7
24,2021-10-25T00:23:00,0.7,西,1.2,西,10.2,89.4,0,0,0,0,0,0,1011.5,1025.7
25,2021-10-25T00:24:00,0.7,西,1.1,西北西,10.2,89.2,0,0,0,0,0,0,1011.5,1025.7
26,2021-10-25T00:25:00,0.6,西,1.1,西北西,10.1,89,0,0,0,0,0,0,1011.6,1025.8
27,2021-10-25T00:26:00,0.6,西,1,西南西,10.1,89,0,0,0,0,0,0,1011.6,1025.8
28,2021-10-25T00:27:00,0.6,西,1,西南西,10.1,89.1,0,0,0,0,0,0,1011.6,1025.8
29,2021-10-25T00:28:00,0.6,西,1,西南西,10.2,89.2,0,0,0,0,0,0,1011.6,1025.8
30,2021-10-25T00:29:00,0.5,西,1,西南西,10,89.2,0,0,0,0,0,0,1011.6,1025.8
31,2021-10-25T00:30:00,0.5,西,1,西南西,9.9,88.8,0,0,0,0,0,0,1011.6,1025.8
32,2021-10-25T00:31:00,0.4,西,1,西南西,10.1,89.2,0,0,0,0,0,0,1011.6,1025.8
33,2021-10-25T00:32:00,0.4,西北西,1,西南西,10.3,89.9,0,0,0,0,0,0,1011.6,1025.8
34,2021-10-25T00:33:00,0.3,西北西,1,西南西,10.3,90.1,0,0,0,0,0,0,1011.6,1025.8
35,2021-10-25T00:34:00,0.2,静穏,0.7,西,10.3,89.8,0,0,0,0,0,0,1011.6,1025.8
36,2021-10-25T00:35:00,0.2,静穏,0.7,西,10.2,89.6,0,0,0,0,0,0,1011.6,1025.8
37,2021-10-25T00:36:00,0.2,静穏,0.9,西,10.1,89.3,0,0,0,0,0,0,1011.5,1025.7
38,2021-10-25T00:37:00,0.2,静穏,0.9,西,10.2,89.3,0,0,0,0,0,0,1011.5,1025.7
39,2021-10-25T00:38:00,0.3,西北西,1,西,10.1,89.2,0,0,0,0,0,0,1011.5,1025.7
40,2021-10-25T00:39:00,0.3,西北西,1,西,10,89,0,0,0,0,0,0,1011.5,1025.7
41,2021-10-25T00:40:00,0.4,西北西,1,西,9.9,88.9,0,0,0,0,0,0,1011.6,1025.8
42,2021-10-25T00:41:00,0.4,西北西,1,西,10,89.2,0,0,0,0,0,0,1011.6,1025.8
43,2021-10-25T00:42:00,0.5,西北西,1.2,西北西,10,89.4,0,0,0,0,0,0,1011.6,1025.8
44,2021-10-25T00:43:00,0.6,西北西,1.2,西北西,10,89.4,0,0,0,0,0,0,1011.6,1025.8
45,2021-10-25T00:44:00,0.7,西,1.3,西,9.9,89.3,0,0,0,0,0,0,1011.6,1025.8
46,2021-10-25T00:45:00,0.8,西,1.3,西,10,89.5,0,0,0,0,0,0,1011.6,1025.8
47,2021-10-25T00:46:00,0.8,西,1.3,西,10.2,90.1,0,0,0,0,0,0,1011.6,1025.8
48,2021-10-25T00:47:00,0.9,西,1.3,西,10.1,89.7,0,0,0,0,0,0,1011.5,1025.7
49,2021-10-25T00:48:00,0.9,西,1.3,西,10.1,89,0,0,0,0,0,0,1011.6,1025.8
50,2021-10-25T00:49:00,0.9,西,1.3,西,10.1,89.2,0,0,0,0,0,0,1011.5,1025.7
51,2021-10-25T00:50:00,0.9,西,1.3,西,10,88.8,0,0,0,0,0,0,1011.5,1025.7
52,2021-10-25T00:51:00,0.9,西,1.3,西,10,89,0,0,0,0,0,0,1011.5,1025.7
53,2021-10-25T00:52:00,0.9,西,1.3,西,10,88.8,0,0,0,0,0,0,1011.5,1025.7
54,2021-10-25T00:53:00,0.9,西,1.3,西,9.9,89,0,0,0,0,0,0,1011.5,1025.7
55,2021-10-25T00:54:00,0.9,西,1.3,西,9.8,88.8,0,0,0,0,0,0,1011.5,1025.7
56,2021-10-25T00:55:00,0.8,西北西,1.2,西,9.9,89.1,0,0,0,0,0,0,1011.5,1025.7
57,2021-10-25T00:56:00,0.7,西北西,1.2,西,9.9,89.3,0,0,0,0,0,0,1011.5,1025.7
58,2021-10-25T00:57:00,0.7,西北西,1.2,西,9.9,89.5,0,0,0,0,0,0,1011.5,1025.7
59,2021-10-25T00:58:00,0.6,西北西,1.1,西,9.9,89.7,0,0,0,0,0,0,1011.5,1025.7
60,2021-10-25T00:59:00,0.6,西北西,1,西,9.9,89.8,0,0,0,0,0,0,1011.5,1025.7
61,2021-10-25T01:00:00,0.5,西北西,0.9,西,9.9,89.5,0,0,0,0,0,0,1011.5,1025.7
62,2021-10-25T01:01:00,0.5,西北西,0.8,西北西,9.9,89.8,0,0,0,0,0,0,1011.5,1025.7
63,2021-10-25T01:02:00,0.4,西北西,0.7,西北西,9.9,89.7,0,0,0,0,0,0,1011.4,1025.6
64,2021-10-25T01:03:00,0.4,北西,0.7,西北西,9.9,89.7,0,0,0,0,0,0,1011.4,1025.6
65,2021-10-25T01:04:00,0.3,北西,0.7,西北西,10,89.9,0,0,0,0,0,0,1011.4,1025.6
66,2021-10-25T01:05:00,0.3,北西,0.6,西北西,10.1,90.1,0,0,0,0,0,0,1011.4,1025.6
67,2021-10-25T01:06:00,0.3,北西,0.6,西北西,10.1,89.7,0,0,0,0,0,0,1011.4,1025.6
68,2021-10-25T01:07:00,0.3,北北西,0.6,西北西,10,89.6,0,0,0,0,0,0,1011.4,1025.6
69,2021-10-25T01:08:00,0.3,北北西,0.6,西北西,10,89.1,0,0,0,0,0,0,1011.4,1025.6
70,2021-10-25T01:09:00,0.2,静穏,0.8,北,10,89.2,0,0,0,0,0,0,1011.4,1025.6
71,2021-10-25T01:10:00,0.2,静穏,0.8,北,10,89.2,0,0,0,0,0,0,1011.4,1025.6
72,2021-10-25T01:11:00,0.3,北,0.9,北,10,89.2,0,0,0,0,0,0,1011.4,1025.6
73,2021-10-25T01:12:00,0.3,北,0.9,北,9.9,89.2,0,0,0,0,0,0,1011.4,1025.6
74,2021-10-25T01:13:00,0.3,北,0.9,北,10,89.3,0,0,0,0,0,0,1011.4,1025.6
75,2021-10-25T01:14:00,0.3,北,0.9,北,10,89.3,0,0,0,0,0,0,1011.3,1025.5
76,2021-10-25T01:15:00,0.4,北,0.9,北,9.9,89.3,0,0,0,0,0,0,1011.4,1025.6
77,2021-10-25T01:16:00,0.4,北,1,北,10,89.5,0,0,0,0,0,0,1011.3,1025.5
78,2021-10-25T01:17:00,0.4,北,1.1,北北東,9.9,89.5,0,0,0,0,0,0,1011.3,1025.5
79,2021-10-25T01:18:00,0.5,北,1.1,北北東,9.9,89.5,0,0,0,0,0,0,1011.3,1025.5
80,2021-10-25T01:19:00,0.5,北,1.4,北,9.9,89.7,0,0,0,0,0,0,1011.3,1025.5
81,2021-10-25T01:20:00,0.5,北,1.4,北,9.9,90,0,0,0,0,0,0,1011.3,1025.5
82,2021-10-25T01:21:00,0.5,北,1.4,北,9.9,89.9,0,0,0,0,0,0,1011.3,1025.5
83,2021-10-25T01:22:00,0.6,北北東,1.4,北,9.8,89.7,0,0,0,0,0,0,1011.3,1025.5
84,2021-10-25T01:23:00,0.6,北,1.4,北,9.8,89.8,0,0,0,0,0,0,1011.2,1025.4
85,2021-10-25T01:24:00,0.7,北,1.4,北,10,90.2,0,0,0,0,0,0,1011.2,1025.4
86,2021-10-25T01:25:00,0.7,北,1.4,北,9.9,90.2,0,0,0,0,0,0,1011.2,1025.4
87,2021-10-25T01:26:00,0.7,北北東,1.4,北,9.9,89.9,0,0,0,0,0,0,1011.2,1025.4
88,2021-10-25T01:27:00,0.8,北北東,1.4,北,10,90.3,0,0,0,0,0,0,1011.2,1025.4
89,2021-10-25T01:28:00,0.8,北北東,1.4,北,9.9,89.9,0,0,0,0,0,0,1011.2,1025.4
90,2021-10-25T01:29:00,0.8,北北東,1.4,北北東,9.9,90.1,0,0,0,0,0,0,1011.2,1025.4
91,2021-10-25T01:30:00,0.8,北北東,1.4,北北東,10,90.1,0,0,0,0,0,0,1011.1,1025.3
92,2021-10-25T01:31:00,0.8,北北東,1.4,北北東,9.9,90.2,0,0,0,0,0,0,1011.2,1025.4
93,2021-10-25T01:32:00,0.7,北北東,1.4,北北東,9.9,89.7,0,0,0,0,0,0,1011.2,1025.4
94,2021-10-25T01:33:00,0.7,北,1.4,北北東,9.9,89.9,0,0,0,0,0,0,1011.1,1025.3
95,2021-10-25T01:34:00,0.6,北,1.4,北北東,9.9,90,0,0,0,0,0,0,1011.1,1025.3
96,2021-10-25T01:35:00,0.6,北,1.4,北北東,10.2,90.7,0,0,0,0,0,0,1011.1,1025.3
97,2021-10-25T01:36:00,0.5,北,1.4,北北東,9.9,90.3,0,0,0,0,0,0,1011.1,1025.3
98,2021-10-25T01:37:00,0.5,北,1.1,北,9.8,89.5,0,0,0,0,0,0,1011.1,1025.3
99,2021-10-25T01:38:00,0.5,北,1.3,北西,9.9,89.5,0,0,0,0,0,0,1011.1,1025.3
100,2021-10-25T01:39:00,0.5,北,1.3,北西,9.8,89.7,0,0,0,0,0,0,1011.1,1025.3
101,2021-10-25T01:40:00,0.5,北北西,1.3,北西,9.7,89.5,0,0,0,0,0,0,1011.1,1025.3
102,2021-10-25T01:41:00,0.5,北北西,1.3,北西,9.7,89.6,0,0,0,0,0,0,1011.1,1025.3
103,2021-10-25T01:42:00,0.5,北北西,1.3,北西,9.9,90.2,0,0,0,0,0,0,1011.1,1025.3
104,2021-10-25T01:43:00,0.5,北北西,1.3,北西,9.9,90.4,0,0,0,0,0,0,1011.1,1025.3
105,2021-10-25T01:44:00,0.6,北西,1.3,北西,10,90.7,0,0,0,0,0,0,1011.1,1025.3
106,2021-10-25T01:45:00,0.7,北西,1.3,北西,9.9,90.4,0,0,0,0,0,0,1011,1025.2
107,2021-10-25T01:46:00,0.7,北西,1.5,西北西,9.8,90.1,0,0,0,0,0,0,1011,1025.2
108,2021-10-25T01:47:00,0.8,北西,1.6,北西,9.8,89.8,0,0,0,0,0,0,1011,1025.2
109,2021-10-25T01:48:00,0.8,北西,1.6,北西,9.9,90.3,0,0,0,0,0,0,1011,1025.2
110,2021-10-25T01:49:00,0.8,北西,1.6,北西,9.9,90.1,0,0,0,0,0,0,1011,1025.2
111,2021-10-25T01:50:00,0.9,北西,1.6,北西,9.9,90,0,0,0,0,0,0,1011,1025.2
112,2021-10-25T01:51:00,1,北西,1.6,北西,9.9,90.1,0,0,0,0,0,0,1011,1025.2
113,2021-10-25T01:52:00,1,北西,1.6,北西,10.1,90.4,0,0,0,0,0,0,1011,1025.2
114,2021-10-25T01:53:00,1,北西,1.6,北西,9.8,89.8,0,0,0,0,0,0,1011,1025.2
115,2021-10-25T01:54:00,1.1,北西,1.7,北西,9.9,89.5,0,0,0,0,0,0,1010.9,1025.1
116,2021-10-25T01:55:00,1.1,北西,1.7,北西,9.8,89.5,0,0,0,0,0,0,1010.9,1025.1
117,2021-10-25T01:56:00,1.1,北西,1.9,北北西,9.8,89.6,0,0,0,0,0,0,1010.9,1025.1
118,2021-10-25T01:57:00,1.1,北西,1.9,北北西,9.9,90,0,0,0,0,0,0,1010.9,1025.1
119,2021-10-25T01:58:00,1.2,北西,2,北西,9.9,90.3,0,0,0,0,0,0,1010.9,1025.1
120,2021-10-25T01:59:00,1.2,北西,2,北西,9.9,90.3,0,0,0,0,0,0,1011,1025.2
121,2021-10-25T02:00:00,1.2,北西,2,北西,9.8,89.7,0,0,0,0,0,0,1011,1025.2
122,2021-10-25T02:01:00,1.2,北西,2,北西,9.9,89.9,0,0,0,0,0,0,1011,1025.2
123,2021-10-25T02:02:00,1.3,北西,2,北西,9.9,90.1,0,0,0,0,0,0,1011,1025.2
124,2021-10-25T02:03:00,1.3,北西,2,北西,9.8,90.2,0,0,0,0,0,0,1011,1025.2
125,2021-10-25T02:04:00,1.2,北西,2,北西,9.7,89.6,0,0,0,0,0,0,1011.1,1025.3
126,2021-10-25T02:05:00,1.2,北西,2,北西,9.7,89.7,0,0,0,0,0,0,1011,1025.2
127,2021-10-25T02:06:00,1.2,北西,2,北西,9.7,89.9,0,0,0,0,0,0,1011.1,1025.3
128,2021-10-25T02:07:00,1.1,北西,2,北西,9.6,89.6,0,0,0,0,0,0,1011,1025.2
129,2021-10-25T02:08:00,1.1,北西,1.8,西北西,9.7,90.1,0,0,0,0,0,0,1011,1025.2
130,2021-10-25T02:09:00,1,西北西,1.8,西北西,9.7,90,0,0,0,0,0,0,1011,1025.2
131,2021-10-25T02:10:00,1,西北西,1.8,西北西,9.6,89.8,0,0,0,0,0,0,1011,1025.2
132,2021-10-25T02:11:00,0.9,西北西,1.8,西北西,9.7,90.1,0,0,0,0,0,0,1010.9,1025.1
133,2021-10-25T02:12:00,0.8,西北西,1.4,西北西,9.5,89.9,0,0,0,0,0,0,1010.9,1025.1
134,2021-10-25T02:13:00,0.7,西北西,1.1,西北西,9.6,89.8,0,0,0,0,0,0,1010.9,1025.1
135,2021-10-25T02:14:00,0.6,北西,1.1,西北西,9.4,89.9,0,0,0,0,0,0,1010.9,1025.1
136,2021-10-25T02:15:00,0.6,北西,1.2,北北東,9.5,90,0,0,0,0,0,0,1010.9,1025.1
137,2021-10-25T02:16:00,0.7,北西,1.2,北北東,9.8,90.8,0,0,0,0,0,0,1010.9,1025.1
138,2021-10-25T02:17:00,0.6,北北西,1.2,北北東,9.8,91.6,0,0,0,0,0,0,1010.9,1025.1
139,2021-10-25T02:18:00,0.6,北北西,1.7,北北東,9.6,90.4,0,0,0,0,0,0,1010.9,1025.1
140,2021-10-25T02:19:00,0.6,北,2,北北東,9.6,90.1,0,0,0,0,0,0,1010.9,1025.1
141,2021-10-25T02:20:00,0.7,北,2.1,北東,9.7,90.6,0,0,0,0,0,0,1010.9,1025.1
142,2021-10-25T02:21:00,0.8,北北東,2.1,北東,9.7,90.9,0,0,0,0,0,0,1010.9,1025.1
143,2021-10-25T02:22:00,0.9,北北東,2.1,北東,9.6,90.7,0,0,0,0,0,0,1010.9,1025.1
144,2021-10-25T02:23:00,1,北北東,2.3,北東,9.7,90.8,0,0,0,0,0,0,1010.8,1025
145,2021-10-25T02:24:00,1.2,北北東,2.3,北東,9.6,90.7,0,0,0,0,0,0,1010.8,1025
146,2021-10-25T02:25:00,1.2,北東,2.3,北東,9.6,90.6,0,0,0,0,0,0,1010.8,1025
147,2021-10-25T02:26:00,1.2,北東,2.3,北東,9.7,91,0,0,0,0,0,0,1010.8,1025
148,2021-10-25T02:27:00,1.3,北東,2.3,北東,9.8,91.3,0,0,0,0,0,0,1010.8,1025
149,2021-10-25T02:28:00,1.2,北東,2.3,北東,9.7,91.3,0,0,0,0,0,0,1010.8,1025
150,2021-10-25T02:29:00,1.2,北北東,2.3,北東,9.7,90.7,0,0,0,0,0,0,1010.8,1025
151,2021-10-25T02:30:00,1.2,北北東,2.3,北東,9.7,91.1,0,0,0,0,0,0,1010.8,1025
152,2021-10-25T02:31:00,1.1,北北東,2.3,北東,9.7,90.9,0,0,0,0,0,0,1010.8,1025
153,2021-10-25T02:32:00,1,北北東,2.3,北東,9.6,90.8,0,0,0,0,0,0,1010.7,1024.9
154,2021-10-25T02:33:00,0.9,北,2.2,北,9.5,90.7,0,0,0,0,0,0,1010.8,1025
155,2021-10-25T02:34:00,0.8,北,2.2,北,9.5,90.7,0,0,0,0,0,0,1010.8,1025
156,2021-10-25T02:35:00,0.6,北,1.9,北,9.5,91,0,0,0,0,0,0,1010.8,1025
157,2021-10-25T02:36:00,0.6,北,1.9,北,9.5,91.3,0,0,0,0,0,0,1010.8,1025
158,2021-10-25T02:37:00,0.5,北北西,1.9,北,9.5,91.4,0,0,0,0,0,0,1010.8,1025
159,2021-10-25T02:38:00,0.6,北北西,1.9,北,9.5,91.5,0,0,0,0,0,0,1010.8,1025
160,2021-10-25T02:39:00,0.5,北北西,1.9,北,9.6,92.2,0,0,0,0,0,0,1010.8,1025
161,2021-10-25T02:40:00,0.5,北北西,1.2,北北東,9.6,92.3,0,0,0,0,0,0,1010.7,1024.9
162,2021-10-25T02:41:00,0.4,北北西,1.2,北北東,9.6,92.4,0,0,0,0,0,0,1010.7,1024.9
163,2021-10-25T02:42:00,0.4,北北西,1.3,西北西,9.5,91.7,0,0,0,0,0,0,1010.7,1024.9
164,2021-10-25T02:43:00,0.5,北北西,1.3,西北西,9.5,91.7,0,0,0,0,0,0,1010.8,1025
165,2021-10-25T02:44:00,0.5,北北西,1.3,西北西,9.4,91.5,0,0,0,0,0,0,1010.8,1025
166,2021-10-25T02:45:00,0.5,北北西,1.3,西北西,9.4,91.4,0,0,0,0,0,0,1010.8,1025
167,2021-10-25T02:46:00,0.5,北北西,1.3,西北西,9.4,92,0,0,0,0,0,0,1010.7,1024.9
168,2021-10-25T02:47:00,0.5,北北西,1.3,西北西,9.5,92,0,0,0,0,0,0,1010.7,1024.9
169,2021-10-25T02:48:00,0.5,北北西,1.4,北北東,9.6,92.3,0,0,0,0,0,0,1010.7,1024.9
170,2021-10-25T02:49:00,0.5,北北西,1.4,北北東,9.6,92.4,0,0,0,0,0,0,1010.7,1024.9
171,2021-10-25T02:50:00,0.5,北北西,1.4,北北東,9.5,91.9,0,0,0,0,0,0,1010.8,1025
172,2021-10-25T02:51:00,0.5,北北西,1.4,北北東,9.7,92.1,0,0,0,0,0,0,1010.8,1025
173,2021-10-25T02:52:00,0.4,北北西,1.4,北北東,9.7,92.4,0,0,0,0,0,0,1010.7,1024.9
174,2021-10-25T02:53:00,0.4,北北西,1.4,北北東,9.6,91.6,0,0,0,0,0,0,1010.7,1024.9
175,2021-10-25T02:54:00,0.5,北北西,1.4,北北東,9.6,91.7,0,0,0,0,0,0,1010.8,1025
176,2021-10-25T02:55:00,0.5,北北西,1.4,北北東,9.7,91.9,0,0,0,0,0,0,1010.8,1025
177,2021-10-25T02:56:00,0.5,北西,1.4,北北東,9.6,91.8,0,0,0,0,0,0,1010.8,1025
178,2021-10-25T02:57:00,0.5,北西,1.4,北北東,9.5,91.2,0,0,0,0,0,0,1010.8,1025
179,2021-10-25T02:58:00,0.5,北西,1.2,西北西,9.8,91.8,0,0,0,0,0,0,1010.8,1025
180,2021-10-25T02:59:00,0.6,北西,1.2,西北西,9.8,92,0,0,0,0,0,0,1010.8,1025
181,2021-10-25T03:00:00,0.6,北西,1.4,北西,9.8,91.7,0,0,0,0,0,0,1010.7,1024.9
182,2021-10-25T03:01:00,0.7,北西,2,西北西,9.8,91.4,0,0,0,0,0,0,1010.8,1025
183,2021-10-25T03:02:00,0.8,北西,2,西北西,9.9,91.5,0,0,0,0,0,0,1010.8,1025
184,2021-10-25T03:03:00,0.9,北西,2,西北西,9.8,91,0,0,0,0,0,0,1010.8,1025
185,2021-10-25T03:04:00,1,北西,2,西北西,9.9,91.1,0,0,0,0,0,0,1010.8,1025
186,2021-10-25T03:05:00,1,北西,2,西北西,9.8,90.9,0,0,0,0,0,0,1010.8,1025
187,2021-10-25T03:06:00,1.1,北西,2,西北西,9.8,90.5,0,0,0,0,0,0,1010.8,1025
188,2021-10-25T03:07:00,1.1,北西,2,西北西,9.9,90.6,0,0,0,0,0,0,1010.7,1024.9
189,2021-10-25T03:08:00,1.1,北西,2,西北西,9.9,90.8,0,0,0,0,0,0,1010.7,1024.9
190,2021-10-25T03:09:00,1.1,北西,2,西北西,9.8,90.4,0,0,0,0,0,0,1010.7,1024.9
191,2021-10-25T03:10:00,1,北西,2,西北西,9.8,90.3,0,0,0,0,0,0,1010.7,1024.9
192,2021-10-25T03:11:00,0.9,北北西,1.8,北西,9.8,90.2,0,0,0,0,0,0,1010.6,1024.8
193,2021-10-25T03:12:00,0.8,北北西,1.7,西北西,9.9,90.4,0,0,0,0,0,0,1010.6,1024.8
194,2021-10-25T03:13:00,0.7,北北西,1.5,北西,9.8,90.2,0,0,0,0,0,0,1010.5,1024.7
195,2021-10-25T03:14:00,0.7,北,1.5,北西,9.8,90,0,0,0,0,0,0,1010.5,1024.7
196,2021-10-25T03:15:00,0.7,北,1.4,北,9.9,90.2,0,0,0,0,0,0,1010.5,1024.7
197,2021-10-25T03:16:00,0.6,北,1.4,北,9.9,90.6,0,0,0,0,0,0,1010.5,1024.7
198,2021-10-25T03:17:00,0.6,北,1.4,北,9.9,90.2,0,0,0,0,0,0,1010.5,1024.7
199,2021-10-25T03:18:00,0.6,北,1.4,北,9.8,90.1,0,0,0,0,0,0,1010.5,1024.7
200,2021-10-25T03:19:00,0.7,北,1.4,北,9.8,90,0,0,0,0,0,0,1010.5,1024.7
201,2021-10-25T03:20:00,0.7,北北東,1.4,北,9.8,90.2,0,0,0,0,0,0,1010.6,1024.8
202,2021-10-25T03:21:00,0.7,北北東,1.4,北,9.7,89.9,0,0,0,0,0,0,1010.6,1024.8
203,2021-10-25T03:22:00,0.8,北北東,1.4,北,9.7,90,0,0,0,0,0,0,1010.6,1024.8
204,2021-10-25T03:23:00,0.8,北北東,1.4,北,9.7,90,0,0,0,0,0,0,1010.6,1024.8
205,2021-10-25T03:24:00,0.7,北北東,1.4,北,9.8,90.5,0,0,0,0,0,0,1010.6,1024.8
206,2021-10-25T03:25:00,0.7,北北東,1.2,北西,9.9,90.6,0,0,0,0,0,0,1010.5,1024.7
207,2021-10-25T03:26:00,0.7,北,1.2,北西,10.1,91.5,0,0,0,0,0,0,1010.5,1024.7
208,2021-10-25T03:27:00,0.7,北,1.7,北西,9.9,90.5,0,0,0,0,0,0,1010.5,1024.7
209,2021-10-25T03:28:00,0.8,北,1.8,北西,9.9,90.4,0,0,0,0,0,0,1010.4,1024.6
210,2021-10-25T03:29:00,0.8,北北西,1.8,北西,9.9,90.3,0,0,0,0,0,0,1010.4,1024.6
211,2021-10-25T03:30:00,0.9,北北西,1.8,北西,9.9,90.4,0,0,0,0,0,0,1010.4,1024.6
212,2021-10-25T03:31:00,0.9,北西,1.8,北西,9.9,90.1,0,0,0,0,0,0,1010.4,1024.6
213,2021-10-25T03:32:00,0.9,北西,1.8,北西,9.8,89.9,0,0,0,0,0,0,1010.4,1024.6
214,2021-10-25T03:33:00,0.9,北西,1.8,北西,9.9,89.9,0,0,0,0,0,0,1010.4,1024.6
215,2021-10-25T03:34:00,0.9,北西,1.8,北西,9.9,89.9,0,0,0,0,0,0,1010.3,1024.5
216,2021-10-25T03:35:00,0.9,北西,1.8,北西,9.7,89.9,0,0,0,0,0,0,1010.3,1024.5
217,2021-10-25T03:36:00,0.9,北西,1.8,北西,9.8,89.9,0,0,0,0,0,0,1010.4,1024.6
218,2021-10-25T03:37:00,0.7,北西,1.8,北西,9.8,90.1,0,0,0,0,0,0,1010.4,1024.6
219,2021-10-25T03:38:00,0.6,北西,1.7,北西,9.8,90.1,0,0,0,0,0,0,1010.4,1024.6
220,2021-10-25T03:39:00,0.5,西北西,1.4,西北西,9.7,90.2,0,0,0,0,0,0,1010.4,1024.6
221,2021-10-25T03:40:00,0.4,西北西,1.4,西北西,9.7,90.2,0,0,0,0,0,0,1010.4,1024.6
222,2021-10-25T03:41:00,0.3,西北西,1.1,西北西,9.6,90,0,0,0,0,0,0,1010.4,1024.6
223,2021-10-25T03:42:00,0.2,静穏,1.1,西北西,9.5,90,0,0,0,0,0,0,1010.5,1024.7
224,2021-10-25T03:43:00,0.2,静穏,0.8,北西,9.7,90.6,0,0,0,0,0,0,1010.5,1024.7
225,2021-10-25T03:44:00,0.1,静穏,0.6,西南西,9.9,91.6,0,0,0,0,0,0,1010.5,1024.7
226,2021-10-25T03:45:00,0.1,静穏,0.8,南西,10,91.7,0,0,0,0,0,0,1010.5,1024.7
227,2021-10-25T03:46:00,0.2,静穏,0.8,南西,10.2,92.3,0,0,0,0,0,0,1010.5,1024.7
228,2021-10-25T03:47:00,0.2,静穏,0.8,南西,10.1,91.7,0,0,0,0,0,0,1010.6,1024.8
229,2021-10-25T03:48:00,0.2,静穏,0.8,南西,9.7,90.1,0,0,0,0,0,0,1010.6,1024.8
230,2021-10-25T03:49:00,0.2,静穏,0.8,南西,9.7,89.4,0,0,0,0,0,0,1010.6,1024.8
231,2021-10-25T03:50:00,0.2,静穏,0.8,南西,9.7,89.8,0,0,0,0,0,0,1010.5,1024.7
232,2021-10-25T03:51:00,0.2,静穏,0.8,南西,9.7,90.1,0,0,0,0,0,0,1010.5,1024.7
233,2021-10-25T03:52:00,0.3,西,0.9,北西,10,90.9,0,0,0,0,0,0,1010.4,1024.6
234,2021-10-25T03:53:00,0.4,西,1,北西,9.9,90.8,0,0,0,0,0,0,1010.4,1024.6
235,2021-10-25T03:54:00,0.5,西,1.2,北西,10.1,90.9,0,0,0,0,0,0,1010.5,1024.7
236,2021-10-25T03:55:00,0.5,西,1.4,西北西,9.9,90.4,0,0,0,0,0,0,1010.5,1024.7
237,2021-10-25T03:56:00,0.6,西,1.4,西北西,9.8,89.7,0,0,0,0,0,0,1010.5,1024.7
238,2021-10-25T03:57:00,0.6,西北西,1.4,西北西,9.7,89.5,0,0,0,0,0,0,1010.6,1024.8
239,2021-10-25T03:58:00,0.7,西北西,1.4,西北西,9.5,89,0,0,0,0,0,0,1010.6,1024.8
240,2021-10-25T03:59:00,0.8,西北西,1.5,西南西,9.4,89.3,0,0,0,0,0,0,1010.6,1024.8
241,2021-10-25T04:00:00,0.8,西北西,1.5,西南西,9.3,89.4,0,0,0,0,0,0,1010.6,1024.8
242,2021-10-25T04:01:00,0.9,西北西,1.5,西南西,9.7,90.9,0,0,0,0,0,0,1010.5,1024.7
243,2021-10-25T04:02:00,1,西,1.5,西南西,9.7,91.4,0,0,0,0,0,0,1010.5,1024.7
244,2021-10-25T04:03:00,1,西,1.7,西北西,9.7,91.4,0,0,0,0,0,0,1010.5,1024.7
245,2021-10-25T04:04:00,1.1,西,1.9,西北西,9.6,91,0,0,0,0,0,0,1010.4,1024.6
246,2021-10-25T04:05:00,1.1,西,1.9,西北西,9.8,91.1,0,0,0,0,0,0,1010.4,1024.6
247,2021-10-25T04:06:00,1.2,西北西,2,北西,9.7,90.8,0,0,0,0,0,0,1010.4,1024.6
248,2021-10-25T04:07:00,1.3,西北西,2,北西,9.7,90.8,0,0,0,0,0,0,1010.4,1024.6
249,2021-10-25T04:08:00,1.3,西北西,2,北西,9.7,90.7,0,0,0,0,0,0,1010.5,1024.7
250,2021-10-25T04:09:00,1.3,西北西,2,北西,9.8,90.7,0,0,0,0,0,0,1010.5,1024.7
251,2021-10-25T04:10:00,1.3,西北西,2,北西,9.4,89.8,0,0,0,0,0,0,1010.6,1024.8
252,2021-10-25T04:11:00,1.3,西北西,2,北西,9.4,89.6,0,0,0,0,0,0,1010.7,1024.9
253,2021-10-25T04:12:00,1.2,西,2,北西,9.6,90.5,0,0,0,0,0,0,1010.7,1024.9
254,2021-10-25T04:13:00,1.1,西,2,北西,9.6,91,0,0,0,0,0,0,1010.7,1024.9
255,2021-10-25T04:14:00,1,西,2,北西,9.6,91.1,0,0,0,0,0,0,1010.7,1024.9
256,2021-10-25T04:15:00,0.9,西南西,2,北西,9.6,91.5,0,0,0,0,0,0,1010.7,1024.9
257,2021-10-25T04:16:00,0.8,南西,1.8,西北西,9.7,91.8,0,0,0,0,0,0,1010.6,1024.8
258,2021-10-25T04:17:00,0.6,南西,1.6,北西,9.7,91.8,0,0,0,0,0,0,1010.6,1024.8
259,2021-10-25T04:18:00,0.5,南西,1.2,西,9.9,92,0,0,0,0,0,0,1010.7,1024.9
260,2021-10-25T04:19:00,0.5,南西,1.7,西,10,92.1,0,0,0,0,0,0,1010.7,1024.9
261,2021-10-25T04:20:00,0.6,南西,1.7,西,9.9,91.9,0,0,0,0,0,0,1010.7,1024.9
262,2021-10-25T04:21:00,0.6,西南西,1.7,西,9.9,91.3,0,0,0,0,0,0,1010.8,1025
263,2021-10-25T04:22:00,0.7,西南西,1.7,西,9.7,90.9,0,0,0,0,0,0,1010.8,1025
264,2021-10-25T04:23:00,0.7,西,1.7,西,9.5,89.6,0,0,0,0,0,0,1010.8,1025
265,2021-10-25T04:24:00,0.7,西,1.7,西,9.3,89.3,0,0,0,0,0,0,1010.8,1025.1
266,2021-10-25T04:25:00,0.8,西北西,1.7,西,9.3,89.5,0,0,0,0,0,0,1010.8,1025.1
267,2021-10-25T04:26:00,0.8,西北西,1.7,西,9.4,90.2,0,0,0,0,0,0,1010.8,1025
268,2021-10-25T04:27:00,0.8,西,1.7,西,9.6,91.5,0,0,0,0,0,0,1010.8,1025
269,2021-10-25T04:28:00,0.8,西,1.7,西,9.7,92.1,0,0,0,0,0,0,1010.9,1025.1
270,2021-10-25T04:29:00,0.7,西,1.7,西北西,9.7,92,0,0,0,0,0,0,1010.9,1025.1
271,2021-10-25T04:30:00,0.6,西北西,1.6,西南西,9.8,92.1,0,0,0,0,0,0,1010.9,1025.1
272,2021-10-25T04:31:00,0.5,西,1.6,西南西,9.7,91.7,0,0,0,0,0,0,1010.9,1025.1
273,2021-10-25T04:32:00,0.4,西,1.6,西南西,9.7,91.5,0,0,0,0,0,0,1010.9,1025.1
274,2021-10-25T04:33:00,0.4,北,1.4,西南西,9.7,91.4,0,0,0,0,0,0,1010.9,1025.1
275,2021-10-25T04:34:00,0.3,東北東,1.4,西南西,9.7,91.3,0,0,0,0,0,0,1010.8,1025
276,2021-10-25T04:35:00,0.4,東北東,1.5,東北東,9.7,91.3,0,0,0,0,0,0,1010.8,1025
277,2021-10-25T04:36:00,0.4,東北東,1.5,東北東,10,92.1,0,0,0,0,0,0,1010.7,1024.9
278,2021-10-25T04:37:00,0.5,東北東,1.5,東北東,10.1,92.2,0,0,0,0,0,0,1010.7,1024.9
279,2021-10-25T04:38:00,0.5,東,1.5,東北東,9.9,91.5,0,0,0,0,0,0,1010.7,1024.9
280,2021-10-25T04:39:00,0.5,東,1.5,東北東,9.8,90.5,0,0,0,0,0,0,1010.7,1024.9
281,2021-10-25T04:40:00,0.5,東北東,1.5,東北東,9.7,90.2,0,0,0,0,0,0,1010.6,1024.8
282,2021-10-25T04:41:00,0.6,東北東,1.5,東北東,9.7,89.9,0,0,0,0,0,0,1010.6,1024.8
283,2021-10-25T04:42:00,0.5,北東,1.5,東北東,9.8,90.6,0,0,0,0,0,0,1010.6,1024.8
284,2021-10-25T04:43:00,0.5,北北東,1.5,東北東,9.8,90.6,0,0,0,0,0,0,1010.6,1024.8
285,2021-10-25T04:44:00,0.6,北,1.5,東北東,9.7,90.6,0,0,0,0,0,0,1010.6,1024.8
286,2021-10-25T04:45:00,0.5,北北西,1.3,東北東,9.7,90.7,0,0,0,0,0,0,1010.6,1024.8
287,2021-10-25T04:46:00,0.5,北西,1.1,西,9.8,90.9,0,0,0,0,0,0,1010.6,1024.8
288,2021-10-25T04:47:00,0.4,北西,1.1,西,9.8,91,0,0,0,0,0,0,1010.6,1024.8
289,2021-10-25T04:48:00,0.4,西北西,1.1,西,9.7,90.9,0,0,0,0,0,0,1010.6,1024.8
290,2021-10-25T04:49:00,0.4,西北西,1.1,西,9.8,90.9,0,0,0,0,0,0,1010.6,1024.8
291,2021-10-25T04:50:00,0.5,西北西,1.1,西,9.7,91.1,0,0,0,0,0,0,1010.6,1024.8
292,2021-10-25T04:51:00,0.5,西,1.2,西南西,9.7,90.7,0,0,0,0,0,0,1010.6,1024.8
293,2021-10-25T04:52:00,0.6,西,1.2,西南西,9.7,90.7,0,0,0,0,0,0,1010.6,1024.8
294,2021-10-25T04:53:00,0.6,西,1.2,西南西,9.7,91,0,0,0,0,0,0,1010.5,1024.7
295,2021-10-25T04:54:00,0.6,西,1.2,西南西,9.7,91.1,0,0,0,0,0,0,1010.4,1024.6
296,2021-10-25T04:55:00,0.5,西,1.2,西南西,9.7,91.1,0,0,0,0,0,0,1010.4,1024.6
297,2021-10-25T04:56:00,0.4,西,1.2,西南西,9.8,91.7,0,0,0,0,0,0,1010.4,1024.6
298,2021-10-25T04:57:00,0.5,西,1.2,西南西,9.8,91.3,0,0,0,0,0,0,1010.4,1024.6
299,2021-10-25T04:58:00,0.5,西,1.2,西南西,9.7,91,0,0,0,0,0,0,1010.4,1024.6
300,2021-10-25T04:59:00,0.6,西,1.2,西南西,9.7,90.8,0,0,0,0,0,0,1010.4,1024.6
301,2021-10-25T05:00:00,0.6,西,1.2,西南西,9.8,91.3,0,0,0,0,0,0,1010.4,1024.6
302,2021-10-25T05:01:00,0.6,西,1.1,西,9.8,91.5,0,0,0,0,0,0,1010.4,1024.6
303,2021-10-25T05:02:00,0.6,西,1.1,西,9.9,91.5,0,0,0,0,0,0,1010.4,1024.6
304,2021-10-25T05:03:00,0.6,西,1,西,10,91.6,0,0,0,0,0,0,1010.4,1024.6
305,2021-10-25T05:04:00,0.6,西,1,西,9.8,90.9,0,0,0,0,0,0,1010.4,1024.6
306,2021-10-25T05:05:00,0.7,西北西,1,西,9.9,90.8,0,0,0,0,0,0,1010.4,1024.6
307,2021-10-25T05:06:00,0.7,西,1.2,西,9.9,90.9,0,0,0,0,0,0,1010.3,1024.5
308,2021-10-25T05:07:00,0.8,西,1.3,西,10,90.9,0,0,0,0,0,0,1010.3,1024.5
309,2021-10-25T05:08:00,0.8,西北西,1.3,西,10,91.1,0,0,0,0,0,0,1010.3,1024.5
310,2021-10-25T05:09:00,0.8,西北西,1.3,西,10,90.6,0,0,0,0,0,0,1010.3,1024.5
311,2021-10-25T05:10:00,0.8,西北西,1.3,西,9.9,90.2,0,0,0,0,0,0,1010.3,1024.5
312,2021-10-25T05:11:00,0.8,西北西,1.3,西,9.8,89.9,0,0,0,0,0,0,1010.3,1024.5
313,2021-10-25T05:12:00,0.7,西,1.3,西,9.8,89.8,0,0,0,0,0,0,1010.2,1024.4
314,2021-10-25T05:13:00,0.7,西,1.3,西,9.7,89.9,0,0,0,0,0,0,1010.2,1024.4
315,2021-10-25T05:14:00,0.7,西,1.3,西,9.7,89.9,0,0,0,0,0,0,1010.2,1024.4
316,2021-10-25T05:15:00,0.7,西,1.3,西,9.7,90.4,0,0,0,0,0,0,1010.2,1024.4
317,2021-10-25T05:16:00,0.8,西,1.3,西,9.7,90.6,0,0,0,0,0,0,1010.2,1024.4
318,2021-10-25T05:17:00,0.8,西,1.3,西,9.7,90.7,0,0,0,0,0,0,1010.2,1024.4
319,2021-10-25T05:18:00,0.8,西,1.3,西,9.8,91.1,0,0,0,0,0,0,1010.3,1024.5
320,2021-10-25T05:19:00,0.8,西,1.4,西,9.8,91.1,0,0,0,0,0,0,1010.3,1024.5
321,2021-10-25T05:20:00,0.9,西,1.4,西,9.8,91.1,0,0,0,0,0,0,1010.4,1024.6
322,2021-10-25T05:21:00,0.9,西,1.4,西,9.9,91.1,0,0,0,0,0,0,1010.4,1024.6
323,2021-10-25T05:22:00,1,西,1.4,西,9.9,91,0,0,0,0,0,0,1010.4,1024.6
324,2021-10-25T05:23:00,1,西,1.4,西,9.7,90.5,0,0,0,0,0,0,1010.3,1024.5
325,2021-10-25T05:24:00,1,西,1.4,西,9.6,90.2,0,0,0,0,0,0,1010.3,1024.5
326,2021-10-25T05:25:00,0.9,西,1.4,西,9.7,90.6,0,0,0,0,0,0,1010.3,1024.5
327,2021-10-25T05:26:00,0.9,西,1.4,西,9.6,90.6,0,0,0,0,0,0,1010.2,1024.4
328,2021-10-25T05:27:00,0.8,西北西,1.4,西,9.6,90.9,0,0,0,0,0,0,1010.2,1024.4
329,2021-10-25T05:28:00,0.7,西北西,1.4,西,9.8,91.4,0,0,0,0,0,0,1010.1,1024.3
330,2021-10-25T05:29:00,0.7,西北西,1.4,西北西,9.8,91.7,0,0,0,0,0,0,1010,1024.2
331,2021-10-25T05:30:00,0.7,西北西,1.4,西北西,9.9,91.7,0,0,0,0,0,0,1010,1024.2
332,2021-10-25T05:31:00,0.7,西北西,1.5,北西,9.9,91.9,0,0,0,0,0,0,1010.1,1024.3